TECHEDSAT 8 (44032 NORAD) Tracking and Keplerian Element Data

This shows tracking and keplerian element data for the satellite.

Feedback or suggestion? Click here.




ElementValue
Catalog44032
NameTECHEDSAT 8
Epoch Orbit351
Epoch Day53.95156015
Epoch Year2019
RAAN209.0788
Inclination51.6383
Eccentricity0.0003327
Argument of Perigee75.7388
Mean Anonmoly284.3973
Mean Motion15.5461418
Decay Rate0.00018999
L11 44032U 98067PY 19053.95156015 .00018999 00000-0 28839-3 0 9992
L22 44032 51.6383 209.0788 0003327 75.7388 284.3973 15.54614180 3518

Live tracking and technical data element details for TECHEDSAT 8 (NORAD 44032). TECHEDSAT 8 can be tracked NOW for your location showing map with azimuth and elevation plus other details from your city location.

Track the satellite on the map from your city or location and see movement details for azimuth, elevation, latitude, longitude, range, height, and movement on the map or in text.







IsCatalogInMostPopularTable: catalog: 44032, numindb: 9
Update: records affected: 1



GetName: 44032 TECHEDSAT 8

Hit Count: updated at: Sat, 23 Feb 2019 16:49:09 GMT